Location: *
(45.9500°N, 9.0833°E)
Time: 06:07:19
(UTC+00:00)

SR - Pass Details

Date: 20 June 2021
Orbit: 577 x 878 km, 66.7° (Epoch: 24 July)

Event Time Altitude Azimuth Distance (km) Brightness Sun altitude
Rises 18:14:18 0° 274° (W) 3,471 ? 8.7°
Reaches altitude 10° 18:17:58 10° 296° (WNW) 2,520 ? 8.1°
Maximum altitude 18:21:20 15° 331° (NNW) 2,131 ? 7.6°
Drops below altitude 10° 18:24:39 10° 7° (N) 2,460 ? 7.1°
Sets 18:28:10 0° 30° (NNE) 3,343 ? 6.5°
